GPS BIIF-9 (40534 NORAD) Tracking and Keplerian Element Data

This shows tracking and keplerian element data for the satellite.

Feedback or suggestion? Click here.




ElementValue
Catalog40534
NameGPS BIIF-9
Epoch Orbit2733
Epoch Day351.86885561
Epoch Year2018
RAAN317.348
Inclination54.6356
Eccentricity0.0033782
Argument of Perigee359.7091
Mean Anonmoly0.2897
Mean Motion2.00552609
Decay Rate-4.8E-07
L11 40534U 15013A 18351.86885561 -.00000048 00000-0 00000+0 0 9993
L22 40534 54.6356 317.3480 0033782 359.7091 0.2897 2.00552609 27330

Live tracking and technical data element details for GPS BIIF-9 (NORAD 40534). GPS BIIF-9 can be tracked NOW for your location showing map with azimuth and elevation plus other details from your city location.

Track the satellite on the map from your city or location and see movement details for azimuth, elevation, latitude, longitude, range, height, and movement on the map or in text.







IsCatalogInMostPopularTable: catalog: 40534, numindb: 127
Update: records affected: 1



GetName: 40534 GPS BIIF-9

Hit Count: updated at: Wed, 19 Dec 2018 16:11:35 GMT